TNCAMKJS

Guest
Details From TNCA - Reina Beatrix Intl
To MKJS - Montego Bay Sangster Intl
Flight Number -
Tags Generated
Created
Modified
Stats Distance 582 nm / 1,077 km
Max Altitude 0 ft / 0 m
Waypoints 4
Social Downloads 1
Likes 0
Share VATSIM

Download

Looking for another format? Having issues loading an existing format? Contact us
Advertisement - Login to hide

Notes

Generated

Route

TNCA AMBIN MBJ MKJS

ID Type Via Altitude Latitude Longitude Leg Dist Tot Dist Heading (true) Name
O TNCA APT - 0 ft / 0 m 12.50439˚ -70.02747˚ - 0 nm - -
AMBIN FIX - 0 ft / 0 m 15.68333˚ -74.00000˚ 299 nm 299 nm 310° / 309° -
MBJ VOR - 0 ft / 0 m 18.50036˚ -77.92392˚ 281 nm 581 nm 307° / 306° MONTEGO BAY VOR-DME
O MKJS APT - 0 ft / 0 m 18.49873˚ -77.92482˚ 0 nm 581 nm 208° / 208° -

Altitude Profile

Advertisement - Login to hide

Weather


0- 5 10 15 20 25 30 35+ Temperature / ° C

Clouds and Precipitation
Forecast for 2018-05-21 18:00 UTC. Updated 2 hours ago

Ground ~20,000 ft ~40,000 ft Winds

TNCA

Details ICAO TNCA (AUA)
Name REINA BEATRIX INTL
Region Caribbean Netherlands, Aruba, Curaçao, Sint Maarten
Timezone America/Aruba (UTC-4.0)
Stats Elevation 60 ft / 18 m (AMSL)
Location 12.501389° -70.015220°
Runways 1
Magnetic Variation 10.813° W

METAR

TNCA 211900Z 09023KT 9999 FEW024 31/26 Q1010 A2985 NOSIG

Decode

TAF

TAF TNCA 211600Z 2118/2218 08020G30KT 9999 SCT022 TEMPO 2201/2212 10015KT BKN015

Decode

Departure Runways

ID Width Length Bearing (true) Bearing (mag) Surface Threshold Offset Overrun Length
11 148 ft / 45 m 8,998 ft / 2,743 m 104.08° 114.89° Asphalt 0 ft / 0 m 184 ft / 56 m
29 148 ft / 45 m 8,998 ft / 2,743 m 284.09° 294.90° Asphalt 0 ft / 0 m 184 ft / 56 m

MKJS

Details ICAO MKJS (MBJ)
Name Sangster Intl
Region Jamaica
Timezone America/Jamaica (UTC-5.0)
Stats Elevation 6 ft / 2 m (AMSL)
Location 18.503549° -77.913698°
Runways 1
Magnetic Variation 7.005° W

METAR

MKJS 211900Z 10006KT 9999 TS FEW022CB 28/25 Q1011

Decode

TAF

TAF MKJS 211715Z 2118/2218 09020KT 9999 FEW020CB TEMPO 2118/2122 6000 SHRA BKN020 BECMG 2200/2202 14010KT FEW020 BECMG 2214/2216 09020KT FEW020CB

Decode

Destination Runways

ID Width Length Bearing (true) Bearing (mag) Surface Threshold Offset Overrun Length
07 161 ft / 49 m 8,495 ft / 2,589 m 65.37° 72.38° Asphalt 220 ft / 67 m 312 ft / 95 m
25 161 ft / 49 m 8,495 ft / 2,589 m 245.37° 252.38° Asphalt 577 ft / 176 m 200 ft / 61 m

Approach Navaids

Runway Type Ident Frequency Range Bearing (true) Bearing (mag) Slope Elevation
07 Localiser ISIA 109.50 MHz 18 nm / 33 km 65.41° 72.41° - 4 ft / 1 m (AMSL)
07 Glidescope ISIA 109.50 MHz 10 nm / 19 km 65.37° 72.38° 3.00° 4 ft / 1 m (AMSL)

Popular Alternatives